Zurück zum Katalog

DELTA 1 DEB

AktivLEO
NORAD 7190·DEBRIS·🇺🇸 United States

Gestartet Nov 6, 1973 von Vandenberg Space Force Base

Loading…

Nächste Überflüge (nächste 24 Stunden)

TLE

AktuellSource: Space-Track

Epoche: Sep 13, 2026, 19:27 UTC

1 07190U 73086EY  26256.81067713  .00002443  00000-0  20548-2 0  9999
2 07190 102.7340 220.3842 0220822 111.0659 251.4244 13.78870171591927

Verfolge DELTA 1 DEB in Echtzeit mit AllMySat

Download on the App Store